Theta_e
351 351 360 357 362 360 364 364 357 359 363 361 354 356 360 357 358 363 361 361 357 348 349 346 350 360 356 348 357 359 357 358 362 356 357 363 361 368 369 368 366 367 367 367 367 368 369 368 367 366 365 362 360 357 355 355 357 357 357 357 357 355 356 356 355 354 353 353 353 354 355 355 355 354 353 354 355 355 355 355 355 355 356 356 356
349 352 353 362 362 360 357 358 359 360 363 361 358 361 359 360 360 356 351 360 351 356 351 349 345 362 355 350 349 347 350 351 351 359 359 357 366 369 372 370 369 368 367 368 368 369 370 370 369 366 366 362 359 357 356 356 358 356 355 356 358 356 356 355 355 354 352 351 352 353 353 355 354 355 354 355 354 355 355 354 355 355 355 355 356
351 357 357 358 359 358 356 359 355 355 366 357 369 361 363 356 364 363 364 364 360 353 352 350 352 348 349 348 351 353 348 353 350 350 355 359 363 359 371 372 372 371 370 369 369 369 370 370 369 368 365 362 360 358 358 357 357 357 355 355 357 357 357 357 355 351 351 350 350 353 353 353 353 354 354 355 354 355 354 354 355 356 355 355 355
359 358 356 364 360 357 360 360 363 358 358 358 369 368 365 359 365 364 360 363 364 360 353 350 356 349 348 350 352 348 355 350 350 351 348 355 370 359 368 363 373 373 372 372 371 371 371 370 370 368 364 362 359 358 358 357 356 356 356 355 357 358 358 357 356 351 351 350 349 351 353 353 352 353 353 355 355 355 354 353 354 355 355 355 355
368 364 364 356 359 361 357 358 360 358 360 359 360 370 367 362 358 361 361 361 356 356 352 364 355 352 346 356 350 350 347 349 350 350 354 348 358 357 354 357 357 373 375 374 373 374 372 372 370 369 366 362 360 358 357 357 355 356 355 355 356 358 358 357 355 351 349 350 350 349 350 352 353 353 354 355 356 353 353 353 353 354 354 354 355
364 362 365 358 361 362 362 362 364 366 367 372 365 362 360 358 360 363 361 359 360 360 358 356 362 355 349 356 349 352 351 348 354 351 349 349 360 355 351 352 357 360 368 375 375 374 374 374 372 370 368 363 360 360 358 358 356 356 357 356 355 357 357 357 355 350 350 351 350 350 350 351 353 353 353 355 354 354 354 354 353 354 354 354 355
366 366 360 361 353 356 359 361 362 371 367 368 369 361 363 361 368 360 363 364 365 360 355 358 360 351 349 348 349 349 350 347 352 352 354 353 357 351 360 352 350 355 361 365 378 373 375 375 374 372 369 364 362 362 360 359 357 356 357 357 357 357 357 357 353 350 351 350 352 351 351 351 352 353 353 353 353 353 352 354 352 353 355 355 355
364 372 360 365 359 358 363 367 364 368 369 368 372 361 361 362 364 364 368 354 365 358 362 360 352 348 353 358 351 352 351 350 347 347 348 353 353 355 352 362 358 353 360 363 369 367 374 376 375 375 370 367 364 363 362 359 358 358 358 357 357 357 356 350 349 349 350 350 351 350 350 350 351 352 353 352 352 353 353 352 352 353 353 355 355
367 370 370 364 361 356 357 361 364 370 369 370 362 364 364 360 369 368 365 365 351 346 353 360 355 350 348 347 351 362 351 352 356 350 350 355 353 351 349 355 357 361 362 367 370 372 371 377 374 375 374 368 366 364 364 361 359 358 358 357 358 357 351 346 348 350 348 350 351 349 349 350 351 351 352 351 352 353 353 352 353 353 353 354 354
370 369 368 359 360 366 363 365 366 373 374 363 363 358 363 360 364 372 367 364 359 354 352 360 349 346 355 347 353 352 348 360 354 356 358 355 355 354 359 357 351 349 349 363 363 367 356 362 374 374 374 372 368 367 365 362 360 359 358 357 358 356 355 348 351 349 347 350 349 349 348 349 349 350 351 351 351 352 353 353 352 353 353 354 354
367 370 367 363 359 360 365 362 368 368 369 361 357 363 360 362 363 364 368 368 366 361 358 358 349 349 346 346 361 354 356 358 353 354 353 357 361 355 354 354 354 353 358 367 362 362 357 364 364 367 371 374 371 368 365 362 360 359 357 356 357 357 356 354 351 347 347 349 349 349 349 348 348 347 348 350 351 352 352 352 352 353 353 353 353
367 368 367 367 361 363 365 364 367 367 363 360 361 360 364 365 364 357 362 361 367 364 360 355 355 354 352 348 352 354 350 354 352 353 356 361 363 356 352 357 357 354 351 354 359 351 354 364 373 367 363 371 372 369 366 361 360 357 356 356 357 355 354 353 351 349 349 349 350 349 349 348 347 347 348 349 350 351 352 352 352 353 353 352 353
367 366 366 365 367 370 369 368 361 363 368 365 364 360 368 367 369 370 359 363 359 355 360 357 350 352 361 348 360 361 354 352 350 353 356 356 361 358 362 357 354 354 356 353 357 351 361 366 363 368 366 371 371 367 364 362 359 356 355 356 357 355 353 352 353 350 348 348 348 349 348 348 347 346 347 348 349 351 352 352 352 352 352 352 353
366 367 367 365 367 367 369 370 368 368 367 365 363 366 367 365 361 367 365 359 358 353 349 351 353 347 347 346 356 361 355 350 351 360 350 357 357 359 359 352 358 353 356 356 353 357 353 362 369 361 363 366 367 364 360 359 358 357 355 356 357 356 353 353 352 350 348 348 348 348 348 348 347 347 346 346 347 349 351 351 352 352 352 352 353
364 366 363 361 364 369 366 369 363 368 374 366 366 367 369 360 364 359 357 359 356 353 356 355 353 352 355 347 345 343 357 358 359 354 349 359 355 350 354 351 351 351 360 358 363 365 354 355 357 359 360 361 361 362 361 360 359 358 356 354 357 356 354 356 353 350 349 349 348 348 349 348 348 347 347 347 348 349 351 352 351 351 352 351 352
359 357 360 363 368 369 365 366 370 371 373 370 368 366 367 364 357 363 362 353 348 350 351 355 354 356 347 344 339 340 341 352 350 352 348 351 350 349 350 347 348 352 354 358 358 361 366 365 357 361 363 360 361 360 360 360 361 359 358 353 354 355 357 357 354 351 350 349 349 349 349 348 348 348 348 348 348 349 351 351 352 351 351 351 351
356 357 359 367 371 372 368 366 367 371 365 365 369 357 355 359 361 364 359 357 351 353 353 354 349 357 356 347 342 341 338 342 339 351 345 346 348 350 352 351 349 354 361 358 358 362 360 354 359 360 359 360 358 360 361 358 359 360 356 353 352 356 356 355 354 352 351 350 349 348 349 349 349 349 349 349 349 349 351 351 352 351 351 351 352
357 358 357 367 367 369 368 362 363 367 366 362 361 365 359 355 352 363 355 361 362 354 347 364 350 359 358 362 359 345 346 346 340 345 347 350 350 350 351 352 351 351 364 361 361 354 364 356 354 358 358 355 355 357 361 360 363 362 358 353 355 357 356 355 354 352 351 351 350 349 349 349 349 350 350 350 349 349 350 351 352 352 352 352 353
353 355 359 367 369 369 369 366 365 368 369 368 368 354 353 352 357 361 360 367 366 359 356 351 364 357 348 349 351 353 347 350 344 347 341 351 352 350 355 349 352 355 358 358 367 364 362 359 355 354 356 354 354 355 358 358 360 362 362 358 357 357 357 356 355 353 352 351 351 350 350 349 349 350 350 350 350 350 351 352 353 353 353 353 353
356 357 362 364 366 367 369 368 365 359 364 367 366 359 364 359 365 366 370 370 363 358 358 356 355 357 352 349 348 351 353 349 348 346 342 339 349 349 353 351 351 357 361 355 362 355 358 358 354 355 358 356 353 356 357 358 360 360 361 360 359 359 359 358 357 355 353 351 351 350 350 350 349 349 350 350 350 350 351 351 352 353 354 353 353
358 355 358 361 364 366 367 367 364 364 368 362 359 354 357 363 370 369 368 369 368 366 365 364 355 355 355 357 352 358 350 352 352 347 347 340 342 344 348 352 357 359 359 357 356 360 360 353 357 355 355 355 355 355 358 357 360 358 362 361 361 360 360 359 357 356 355 351 351 351 350 350 350 350 350 350 351 350 350 351 352 352 353 353 352
353 360 356 360 362 363 361 359 361 357 361 359 358 364 363 365 366 359 370 365 366 365 360 363 356 357 353 357 359 356 354 354 353 347 346 347 342 346 345 344 344 357 360 357 354 354 363 359 353 352 352 351 354 355 352 354 358 360 363 363 362 362 361 360 358 358 356 353 352 351 351 350 349 349 349 350 351 351 350 351 352 352 352 352 351
350 355 355 351 357 361 356 356 357 363 363 361 363 355 353 357 358 363 364 366 364 367 360 363 360 368 353 360 362 348 353 347 354 350 345 347 347 348 347 348 344 345 359 354 359 358 359 363 352 353 354 359 357 358 358 359 363 366 368 364 363 363 361 360 359 359 357 353 352 352 351 351 350 349 349 350 350 350 350 350 350 351 351 351 351
353 350 351 350 355 358 360 357 359 359 360 361 357 357 360 359 361 365 366 366 367 368 362 361 356 360 356 351 355 348 357 353 348 357 351 354 350 347 348 350 345 348 356 362 357 363 361 363 365 359 357 358 362 370 375 368 370 373 368 367 364 363 362 361 360 359 358 354 352 352 351 351 350 350 349 348 349 349 350 349 350 349 350 350 350
350 347 348 351 355 358 357 357 363 361 366 369 371 368 369 364 364 355 360 365 368 367 362 358 357 355 354 351 348 346 349 350 353 354 349 352 349 350 348 347 354 355 358 354 356 359 362 363 363 367 367 359 362 364 369 364 368 371 368 367 364 364 362 361 360 360 358 356 354 352 351 351 351 350 350 350 349 349 350 349 349 349 349 350 350
347 349 347 347 348 353 359 359 365 368 368 368 363 366 372 366 366 363 354 363 368 365 366 361 360 356 355 352 350 349 352 350 354 351 350 349 353 344 352 352 346 349 354 358 362 357 365 364 367 365 366 360 363 370 363 361 365 369 369 366 363 362 363 362 361 360 359 358 356 354 353 352 351 351 350 350 350 349 349 349 349 350 349 350 349
352 353 355 352 349 353 357 356 359 366 370 367 355 365 369 368 368 366 365 360 365 363 360 354 353 351 353 354 352 352 351 353 351 353 361 352 349 352 353 348 346 349 348 358 358 355 355 362 356 360 371 376 370 367 366 367 360 365 368 365 365 361 361 361 362 361 360 360 358 356 355 354 353 351 351 351 350 350 350 350 350 350 349 350 350
353 357 349 356 354 353 358 353 361 360 362 365 365 361 368 365 368 367 365 358 358 361 362 358 355 354 351 361 358 352 354 352 353 353 355 356 357 357 358 353 349 344 348 350 349 356 352 354 359 368 361 365 366 364 364 360 360 368 366 365 366 362 360 360 361 361 360 360 360 359 358 356 356 354 352 352 352 352 351 351 350 350 350 350 350
349 350 351 355 359 358 351 350 359 361 361 363 359 363 369 368 362 369 365 359 363 364 360 359 361 353 352 352 358 357 355 363 357 358 360 365 361 369 364 356 355 349 346 343 348 344 356 352 354 366 365 367 367 360 361 359 360 363 359 366 368 365 359 356 359 359 359 358 358 359 360 359 357 357 355 353 352 352 352 352 352 351 351 351 350
348 347 348 349 353 359 360 361 358 354 355 355 359 361 367 365 364 368 365 369 366 369 369 361 357 357 357 356 355 353 357 357 353 353 366 368 363 357 364 363 360 355 352 343 347 351 350 355 358 361 366 361 362 363 363 364 362 362 359 357 364 368 357 355 357 357 357 356 356 357 359 360 359 359 358 357 355 354 353 351 352 352 352 352 351
353 361 350 347 351 352 359 354 356 362 359 355 363 365 366 366 364 362 364 369 367 365 367 362 355 355 362 357 361 360 360 357 358 357 362 361 362 368 366 364 362 361 361 355 347 356 353 353 365 362 363 365 361 357 362 366 362 360 358 359 361 361 356 357 357 356 356 355 354 354 356 359 360 360 359 359 359 357 355 354 353 353 353 353 353
348 350 351 347 348 348 347 346 346 347 349 352 354 361 364 365 363 357 363 367 364 364 361 361 359 358 360 360 364 364 366 364 365 360 365 363 362 362 363 366 364 360 360 356 351 351 361 356 356 353 357 361 357 356 361 357 358 360 362 361 370 362 363 364 355 356 354 354 353 352 352 354 356 358 358 359 359 360 358 357 356 355 355 354 354
348 346 348 352 354 349 347 350 346 351 358 358 358 363 365 366 367 366 366 365 363 360 362 361 359 359 364 361 363 366 365 363 364 360 356 356 364 365 361 363 353 353 356 355 348 353 361 355 351 352 358 360 360 362 359 358 362 363 362 362 362 363 363 364 364 353 352 352 351 350 349 350 352 353 355 357 358 359 360 359 358 357 356 356 355
349 346 348 346 349 350 348 349 351 349 358 362 355 358 362 363 361 358 359 364 362 360 365 363 361 359 361 363 362 358 367 361 359 354 353 351 350 351 351 350 352 353 360 355 354 351 346 350 350 354 357 357 354 360 358 358 361 362 360 364 363 361 362 367 364 359 349 351 349 348 347 347 347 348 351 354 357 358 359 359 358 354 354 354 352
348 348 346 346 350 353 352 352 357 354 362 356 358 359 359 360 358 356 357 359 360 359 360 362 360 361 358 363 358 361 357 358 361 356 357 358 355 355 353 356 355 357 358 360 354 349 344 344 350 351 359 360 358 358 357 358 362 361 358 357 357 360 365 361 361 360 345 347 347 346 346 346 345 345 347 349 352 355 356 356 352 348 348 348 344
345 348 348 349 352 357 355 356 358 359 357 356 356 357 360 359 359 360 361 362 358 357 355 356 356 357 357 360 358 363 363 360 362 365 364 360 361 360 357 359 359 357 361 356 353 349 346 344 352 354 358 358 360 361 359 359 360 360 358 359 360 359 362 358 358 361 352 345 347 346 345 345 345 344 344 344 346 348 347 346 345 344 341 341 342
347 346 350 353 355 357 349 351 355 360 358 357 359 358 356 357 358 358 363 361 359 359 358 359 358 361 360 359 364 363 358 361 361 363 363 359 360 359 357 357 358 358 359 359 356 353 351 348 351 356 360 361 361 359 359 356 359 361 363 361 360 362 361 358 357 357 352 346 346 345 344 344 344 343 342 342 341 341 342 342 341 340 340 338 337
349 347 349 349 350 357 357 356 355 358 363 362 364 364 358 356 357 360 360 361 360 361 360 358 359 362 359 366 364 364 365 360 359 363 366 361 362 359 356 357 357 359 360 358 358 355 353 350 351 351 354 351 350 351 354 353 349 348 358 359 362 358 357 355 355 359 361 359 359 358 345 343 342 339 341 342 341 339 338 339 340 338 337 334 332
348 346 346 351 356 358 359 357 356 357 362 361 366 369 366 365 364 362 355 359 358 357 357 361 360 366 366 366 368 367 367 366 362 361 364 361 361 359 357 356 359 357 354 354 355 354 350 346 347 347 346 351 348 346 351 351 349 348 347 352 357 360 357 353 353 360 362 361 357 351 353 352 347 347 342 338 338 339 338 337 337 337 336 333 329
347 347 346 346 351 352 352 353 357 360 365 365 366 369 368 361 358 356 357 357 356 357 355 360 356 363 366 366 365 365 365 367 363 362 364 362 363 358 359 359 357 355 354 353 353 352 348 346 346 346 346 345 345 349 353 350 347 349 352 348 348 353 355 357 355 354 356 359 359 358 351 351 350 346 341 340 339 339 338 337 339 341 340 336 333
348 348 349 347 346 349 351 354 358 359 357 355 354 358 361 359 360 356 359 357 361 359 362 356 359 359 359 360 363 362 366 363 363 363 362 362 360 358 360 359 358 356 355 353 351 351 348 346 345 347 345 344 345 345 345 344 345 346 347 347 346 350 355 354 356 358 357 354 357 354 357 357 354 354 358 357 355 344 346 341 343 344 341 337 334
360 363 361 354 348 347 349 351 354 357 356 354 360 362 365 359 361 356 357 363 367 364 361 360 354 352 354 356 362 363 363 362 362 363 361 361 361 360 359 359 358 355 354 352 349 348 347 346 345 345 344 345 347 346 345 347 349 351 349 348 347 350 352 353 352 354 356 354 352 352 350 355 356 356 356 354 355 354 354 347 341 341 334 332 332
359 367 361 353 348 346 345 346 350 357 357 357 360 346 349 361 359 361 361 364 364 362 357 353 349 350 352 354 362 360 360 361 362 360 360 360 360 360 360 359 358 355 352 350 350 351 348 345 345 346 344 344 344 345 345 347 349 346 345 345 347 347 347 345 341 350 356 354 353 350 347 351 353 349 350 352 353 349 346 336 333 333 332 331 330
361 355 351 352 353 349 346 346 350 356 356 361 345 343 347 350 361 361 359 360 359 359 351 349 350 352 356 359 361 360 361 362 361 361 361 360 357 357 358 356 356 356 353 350 348 347 347 345 344 343 341 339 340 343 343 346 343 346 347 347 346 344 341 342 342 340 348 352 350 349 345 352 354 350 348 350 350 340 334 332 330 329 329 328 328
357 357 358 354 352 352 349 350 354 351 352 347 340 341 342 344 350 363 353 355 351 352 350 352 353 350 354 361 359 361 359 359 357 356 357 356 357 357 354 353 354 354 346 347 348 350 349 345 342 341 341 344 342 342 347 348 349 345 347 348 347 347 344 343 342 344 342 344 347 346 342 349 351 348 347 348 350 342 335 331 330 329 327 326 325
348 346 348 352 355 358 355 354 358 358 363 347 337 339 339 340 344 354 352 351 355 354 354 355 349 350 355 356 357 355 354 354 353 353 353 351 350 351 348 347 346 348 351 352 351 351 349 345 342 338 340 342 339 340 343 346 346 346 347 346 347 346 344 341 345 343 339 339 338 340 342 345 345 345 345 345 342 336 332 327 326 327 326 324 323
350 347 348 345 347 352 352 353 354 345 347 333 334 335 334 335 341 358 354 354 355 353 352 352 354 354 355 355 355 353 353 353 351 351 352 352 352 348 343 341 340 341 342 344 344 343 342 338 337 336 337 339 337 338 338 342 344 347 349 348 349 346 345 347 348 349 337 337 337 339 337 340 345 344 344 345 342 337 333 327 326 326 325 324 323
351 350 348 347 349 352 355 355 354 347 335 326 330 330 329 333 344 355 356 356 352 350 350 354 354 354 354 356 355 354 352 346 346 344 349 352 349 345 342 340 338 339 339 342 336 339 343 339 337 335 334 336 334 337 337 337 340 344 352 354 352 347 342 341 339 336 332 334 336 334 336 336 339 338 338 343 344 339 336 331 328 328 325 324 322
348 347 349 351 355 353 353 354 349 342 338 326 323 324 325 329 341 354 356 354 354 352 352 349 346 345 346 349 352 352 348 345 339 330 338 352 346 343 341 338 337 337 337 336 333 332 330 328 328 329 329 328 328 327 327 329 334 339 341 337 335 341 340 336 336 330 327 331 332 332 335 333 336 336 337 340 340 340 339 334 330 326 325 323 321
346 346 349 350 350 351 352 356 351 345 339 329 321 321 322 326 343 356 355 354 351 350 347 345 342 339 340 346 346 344 344 340 326 325 333 351 346 344 341 338 338 337 338 340 339 336 330 329 330 330 331 333 334 334 332 331 332 336 334 330 332 336 333 333 330 327 328 328 329 332 334 328 336 334 336 336 339 340 340 339 334 325 323 321 320
345 345 345 347 348 347 348 353 354 344 336 328 318 320 320 326 347 359 356 352 349 346 344 340 340 338 336 337 336 332 332 327 320 325 337 350 346 344 342 340 337 336 338 339 339 338 338 338 339 341 339 340 340 339 339 337 336 338 334 333 333 332 330 330 329 329 324 324 329 333 330 327 329 331 333 333 332 335 334 333 334 335 336 336 332
Wind_Speed
5 4 3 3 2 2 3 2 4 6 4 3 5 5 4 2 1 2 3 2 2 4 3 4 2 2 1 2 1 1 2 2 1 3 3 2 3 7 14 13 13 12 12 12 11 11 10 10 9 7 7 5 5 3 2 3 5 6 5 3 2 1 3 4 5 4 3 3 4 6 8 11 14 15 17 17 18 19 19 20 19 20 19 19 19
3 4 4 2 4 5 2 4 6 6 4 3 5 3 3 4 3 4 3 2 3 2 3 3 1 1 1 7 7 5 5 7 8 3 2 4 2 1 14 13 13 12 12 12 13 12 12 11 10 8 8 6 6 5 4 4 5 5 5 4 3 2 2 4 4 4 3 4 4 4 5 6 11 14 16 18 19 18 20 19 19 19 20 18 18
3 2 4 3 4 4 4 4 2 3 1 5 1 2 2 2 0 1 2 1 1 4 4 5 4 7 5 10 6 8 5 3 7 10 3 3 2 3 6 13 12 13 12 12 13 13 12 12 11 10 10 9 7 6 6 4 4 5 5 5 5 4 3 3 4 4 5 4 4 5 5 5 5 10 16 18 18 19 20 19 18 18 19 18 19
2 2 3 2 3 5 3 2 1 2 3 8 2 1 2 3 2 2 1 3 1 4 4 4 3 3 9 6 3 4 3 3 6 9 4 3 1 2 1 4 11 12 12 13 13 13 12 11 11 11 13 12 10 9 7 6 6 5 5 5 6 7 4 2 2 4 4 4 3 4 6 6 7 7 12 17 19 20 19 19 19 19 19 18 18
3 3 3 3 3 5 3 3 3 4 6 6 2 2 2 1 4 3 4 3 3 2 4 2 1 3 5 4 2 6 8 5 9 2 7 8 1 2 3 4 3 10 13 13 13 13 12 11 11 11 14 14 13 12 11 10 7 7 6 6 7 8 6 2 2 4 3 4 5 4 6 7 8 8 9 14 17 18 18 19 18 20 20 19 19
1 2 3 4 3 2 2 2 3 4 4 2 2 4 4 3 3 3 1 3 1 2 3 1 1 2 6 4 7 9 7 7 7 5 7 6 3 3 4 4 3 4 6 11 12 13 12 11 11 13 11 13 13 14 14 12 10 9 8 7 7 7 6 3 2 4 4 5 5 5 5 6 7 8 9 12 14 17 17 18 18 19 19 19 19
2 2 2 2 4 3 4 1 2 1 1 2 2 3 1 2 1 2 1 2 1 2 1 1 1 1 3 10 10 9 10 11 4 3 1 4 3 5 5 5 5 4 2 0 9 13 12 13 12 15 14 13 12 14 14 12 12 11 9 9 8 7 7 5 3 4 5 5 6 5 5 5 6 8 8 11 14 15 17 18 18 19 19 19 19
3 2 2 1 6 1 1 1 2 2 1 3 2 2 1 1 1 1 1 1 2 2 3 4 1 2 4 6 9 10 9 10 7 7 5 4 2 3 3 2 2 3 4 1 0 5 11 13 12 15 14 13 14 13 12 11 13 12 10 9 8 8 8 3 4 4 4 7 6 3 3 3 5 7 8 9 12 14 15 17 18 17 18 19 18
3 2 3 1 4 2 2 4 5 3 2 2 3 0 1 1 1 1 2 1 4 2 3 4 2 1 2 3 4 4 4 8 1 3 2 1 1 1 1 1 3 8 3 1 2 1 5 10 12 12 14 12 12 12 12 12 13 12 10 9 8 8 5 2 8 5 5 7 7 3 2 3 4 6 8 8 9 14 15 17 17 16 17 19 18
2 2 3 1 3 3 2 3 2 1 0 3 2 0 1 2 0 1 1 2 2 2 2 1 1 2 1 3 2 2 4 3 3 3 2 2 2 2 2 3 3 6 4 2 0 1 3 7 10 10 10 12 12 11 12 12 12 11 10 8 8 6 6 7 7 5 3 7 5 3 3 3 4 5 7 7 8 12 15 16 17 17 16 18 18
3 3 2 3 4 3 3 4 2 0 2 4 3 2 2 3 3 3 2 1 2 2 3 3 4 1 2 4 1 3 4 1 4 3 1 3 3 3 2 3 3 5 3 1 3 3 4 2 4 4 4 11 12 11 11 11 11 10 7 5 6 7 7 6 6 7 4 6 5 4 3 2 4 5 6 6 8 9 13 15 19 18 18 17 17
4 3 3 3 4 4 3 4 3 1 1 3 3 3 4 2 2 2 2 2 1 2 2 2 1 2 1 3 3 2 4 4 4 2 1 2 1 2 5 1 2 4 6 3 2 4 7 3 3 2 3 7 10 10 10 10 10 7 5 6 6 7 8 7 7 8 5 6 5 3 3 2 3 5 4 6 7 8 12 16 18 19 18 17 17
4 4 4 4 1 1 3 1 2 3 2 2 2 3 3 3 1 2 3 2 1 1 1 0 2 3 1 4 1 1 5 4 3 1 2 1 2 1 1 2 3 4 4 4 3 4 1 2 2 1 3 4 5 9 9 10 9 7 6 7 8 7 7 7 9 6 6 3 4 4 4 4 3 4 6 6 6 7 9 14 17 18 17 17 15
4 4 4 3 3 2 1 3 3 0 3 3 3 4 3 4 2 2 3 2 1 3 2 2 2 2 1 2 1 2 3 2 3 1 3 1 1 1 2 4 4 5 3 3 4 2 3 1 0 3 3 4 4 3 4 4 5 8 7 7 8 8 6 7 7 7 4 2 3 4 5 4 4 4 5 5 6 8 8 13 15 17 16 16 16
5 5 5 5 4 3 3 4 4 5 4 3 4 2 2 3 1 3 0 1 2 2 4 3 2 1 1 2 3 2 2 2 1 1 2 0 3 4 4 6 5 5 2 2 2 2 4 3 4 4 1 3 4 3 3 4 5 10 9 7 9 9 7 8 9 6 6 5 4 5 5 5 5 5 5 5 7 7 8 12 14 15 15 13 14
7 7 6 5 3 4 3 1 2 4 3 3 3 4 3 3 4 1 2 2 2 3 5 5 3 4 2 1 3 1 1 1 3 2 1 3 5 7 7 6 5 4 3 3 2 2 2 2 2 4 2 1 1 3 2 2 5 9 9 7 9 10 10 9 8 8 9 6 6 6 5 6 6 6 6 6 8 8 9 11 13 15 14 13 13
6 6 6 5 3 3 2 3 4 4 4 4 3 4 1 2 3 3 3 2 2 1 3 0 0 3 3 1 2 1 2 2 3 3 5 2 3 5 6 8 7 3 1 3 2 2 3 3 1 3 5 1 2 1 2 2 4 5 7 8 8 11 7 8 7 10 10 8 7 7 7 7 7 8 8 8 9 9 10 12 13 14 15 14 14
6 6 6 6 4 4 4 4 5 5 4 3 4 2 4 5 1 2 3 2 2 2 3 2 2 4 5 3 3 3 2 3 2 1 1 2 4 4 5 6 5 5 2 2 2 2 1 3 5 6 3 2 4 4 2 4 4 4 5 6 10 10 8 8 8 11 10 11 9 8 8 8 8 9 9 9 9 10 11 13 15 15 16 17 15
8 6 4 7 5 4 5 4 3 3 3 3 3 5 2 4 1 3 1 3 2 2 2 3 1 1 3 3 4 2 3 1 1 0 3 3 2 4 4 5 5 4 3 1 2 1 1 4 5 4 7 7 6 7 5 3 5 6 8 6 9 10 10 10 12 11 11 11 10 9 9 9 9 9 10 10 10 11 11 14 15 16 17 17 16
6 7 5 8 5 5 4 4 4 4 3 2 2 3 1 3 2 1 2 0 1 2 2 3 3 2 2 4 0 1 3 2 3 3 3 2 2 3 5 6 3 3 3 5 2 2 4 5 2 2 4 5 8 8 9 3 4 4 5 8 10 11 11 13 16 13 11 11 11 10 10 10 9 10 9 10 10 10 11 11 12 13 15 16 15
6 7 5 6 6 5 5 4 4 3 3 4 4 6 3 1 3 1 2 1 2 1 2 3 3 1 1 2 2 2 3 2 2 4 2 2 2 2 2 2 4 5 3 2 1 5 4 4 4 5 4 5 7 11 9 6 3 4 6 11 11 12 13 15 16 15 12 12 12 11 10 10 10 10 10 11 11 11 11 11 11 13 14 14 15
7 4 6 4 7 6 5 7 5 5 3 4 2 2 2 2 2 2 1 2 0 2 2 3 3 3 2 2 1 3 2 1 2 1 2 3 3 2 1 2 4 2 2 2 3 2 2 8 9 8 8 9 9 8 8 3 4 6 8 14 14 14 15 15 16 16 14 13 12 12 11 11 11 11 11 12 12 11 11 12 12 13 13 13 13
8 6 7 8 6 6 7 7 6 5 4 3 3 3 3 4 2 3 2 2 3 2 3 3 3 2 3 3 3 3 1 2 2 2 2 2 2 1 1 3 2 6 1 4 3 3 2 1 9 8 9 8 8 11 10 10 12 11 14 17 16 15 15 16 16 16 15 13 13 12 12 11 11 11 12 12 13 12 12 12 12 12 12 12 11
7 7 7 9 6 5 6 5 5 4 4 4 4 3 1 3 3 3 3 4 4 2 2 3 6 2 3 2 2 3 0 1 1 1 3 2 2 2 3 2 3 3 2 2 2 1 3 2 1 3 5 4 2 2 3 3 7 15 14 17 15 16 16 16 16 15 15 14 13 13 13 12 11 11 11 12 12 13 13 13 13 14 14 14 13
7 8 9 9 6 7 6 6 4 4 3 2 2 1 1 2 2 3 4 4 3 2 2 4 4 3 2 4 4 3 2 0 1 1 3 3 4 3 4 3 1 2 1 2 1 2 1 2 2 1 2 4 2 2 2 5 7 11 13 13 16 16 16 16 16 15 15 14 14 13 13 13 13 12 11 11 11 11 12 12 13 13 13 13 13
8 7 8 10 8 8 7 6 4 3 4 3 3 2 2 2 2 3 4 2 3 3 3 4 3 4 3 3 3 5 2 2 1 2 3 3 1 4 3 1 3 1 1 1 0 2 1 1 1 2 2 3 2 1 3 3 4 12 12 10 13 16 15 15 16 16 16 16 15 15 14 13 13 13 13 12 12 11 11 11 12 12 13 13 13
6 5 5 7 8 7 9 7 5 3 3 3 4 3 3 3 2 2 3 4 2 3 3 5 4 5 5 4 5 3 3 4 3 1 1 2 3 3 3 2 1 1 1 0 1 1 2 2 3 3 1 0 1 4 3 0 4 9 8 9 7 14 14 15 15 15 16 16 16 15 15 14 13 13 13 13 14 13 13 12 11 11 11 12 12
6 4 7 4 5 5 8 7 5 6 5 3 3 3 4 4 3 2 3 4 3 3 3 3 5 5 6 3 3 3 3 0 4 2 1 2 3 3 2 3 1 2 2 2 1 2 2 2 2 2 4 5 4 4 4 6 2 6 7 4 7 9 13 14 14 14 14 14 16 16 15 15 14 14 14 14 14 14 14 14 14 13 13 12 12
8 6 6 5 3 3 5 8 7 5 5 5 5 4 3 2 3 3 3 4 4 3 2 3 3 6 4 3 1 3 4 1 3 1 2 4 5 1 1 2 3 2 2 3 3 3 1 1 1 2 4 4 4 4 4 3 4 4 4 1 6 6 12 14 14 14 13 14 13 14 14 14 15 15 15 15 14 14 14 14 14 14 14 14 14
8 9 7 8 6 5 3 3 4 7 6 6 6 5 4 3 4 3 4 1 3 3 1 4 5 4 3 3 3 3 3 1 1 4 1 1 2 2 1 2 4 3 2 1 2 1 3 2 2 2 2 3 3 2 1 1 1 2 4 6 1 4 15 15 14 14 13 14 14 13 14 15 15 15 16 16 16 16 15 15 15 15 15 14 14
6 4 7 8 7 6 4 5 4 3 5 5 4 4 4 4 4 4 3 3 2 2 2 4 5 4 2 3 2 2 2 3 3 2 2 1 2 2 2 2 2 2 2 3 0 1 1 2 1 3 1 2 2 2 2 2 1 2 3 4 4 7 13 11 14 14 14 14 14 14 14 15 15 15 15 15 15 15 15 15 16 16 16 16 15
7 6 4 6 7 9 9 9 8 7 6 6 6 5 4 4 4 5 2 2 1 2 3 4 4 5 3 2 2 3 1 1 1 1 1 1 1 1 1 2 3 2 6 2 2 3 2 2 3 4 3 1 2 3 2 4 1 0 3 4 6 5 3 3 10 12 14 13 14 14 14 15 15 15 15 14 14 15 17 17 17 17 17 16 16
7 8 7 5 5 8 9 8 10 6 5 6 5 4 4 4 4 3 3 3 2 3 2 4 4 5 3 4 3 2 2 2 2 2 2 3 1 2 2 2 4 7 4 2 3 3 1 5 4 3 3 2 1 2 2 2 2 3 4 4 5 4 2 2 2 10 13 13 13 13 13 14 14 15 15 15 15 15 16 17 17 16 16 15 15
8 9 8 9 7 5 8 8 8 8 5 5 5 4 4 5 6 6 6 4 3 3 2 3 4 4 3 4 2 3 1 3 2 3 3 4 4 3 4 4 3 3 4 3 1 1 3 5 6 5 4 4 3 3 5 4 3 4 3 2 4 3 2 1 2 2 9 8 6 5 7 8 10 13 15 15 15 16 15 15 15 15 15 15 14
8 7 8 10 7 6 5 5 5 7 4 5 6 5 5 5 6 7 6 5 5 6 6 5 5 3 4 2 3 2 2 2 2 3 4 4 4 3 4 4 4 2 3 2 2 2 1 3 3 4 1 1 1 2 3 3 2 2 3 3 3 2 1 0 1 2 6 7 9 8 8 8 8 10 13 14 15 15 16 15 14 14 14 14 14
10 9 8 9 7 6 6 5 5 5 6 6 6 6 6 6 7 7 6 4 5 6 6 5 4 3 3 2 2 2 1 2 1 1 1 2 2 4 5 3 2 3 3 3 2 2 3 2 2 3 2 2 0 1 2 2 1 2 3 3 3 1 1 2 2 1 5 5 8 9 10 10 11 11 10 14 15 15 14 14 14 13 12 12 13
10 10 8 6 6 7 9 8 6 4 5 6 6 7 7 6 6 6 5 5 5 5 5 4 5 4 4 1 1 2 3 3 1 2 1 3 4 3 2 2 3 3 2 3 2 2 2 3 2 2 2 2 1 1 1 2 3 3 3 4 4 1 2 2 2 1 0 5 6 8 9 9 8 7 9 10 13 15 14 12 12 13 13 13 12
9 9 8 9 8 6 6 7 7 6 5 5 4 5 5 6 6 5 4 6 6 5 5 6 5 3 1 1 2 1 1 1 2 1 1 2 2 2 2 1 1 2 2 2 1 1 1 1 1 2 2 3 3 3 4 4 5 7 5 2 1 3 1 2 1 1 0 1 1 1 4 4 7 8 8 11 12 11 9 10 12 11 12 12 12
10 10 10 7 5 5 6 7 7 6 5 5 4 4 4 4 4 3 5 4 4 5 4 3 3 1 1 2 1 2 1 1 2 2 1 1 1 1 2 2 1 3 3 2 2 1 2 1 0 1 2 2 3 3 1 2 1 1 5 5 2 2 1 1 1 2 1 1 3 5 4 4 11 3 9 13 11 10 9 9 10 10 10 10 10
10 10 10 10 8 8 8 8 7 6 4 4 4 3 3 4 4 5 4 4 4 4 4 2 2 2 4 3 1 1 1 1 2 2 2 2 1 0 1 2 2 1 0 1 1 1 1 0 0 0 1 1 2 3 3 0 1 0 2 5 6 3 2 1 0 2 3 3 3 2 2 3 3 4 4 3 8 9 7 6 8 9 9 9 11
9 9 9 9 8 9 8 6 5 5 6 7 7 5 4 6 4 5 4 4 2 3 3 4 6 8 6 1 3 3 2 2 1 1 3 3 2 2 1 2 0 2 2 1 1 2 1 1 2 1 0 1 1 2 4 3 3 4 3 3 5 4 3 3 1 1 3 4 3 3 4 3 1 1 0 2 1 2 4 4 3 5 8 11 11
4 4 4 5 8 7 7 7 7 6 6 7 7 8 8 5 4 5 5 2 1 1 3 4 10 14 13 8 5 3 2 1 2 3 3 4 4 3 3 3 3 3 3 1 1 1 2 2 2 2 3 3 2 1 2 1 2 3 0 1 4 3 4 1 2 4 5 5 4 4 6 4 1 1 3 3 3 5 7 7 7 9 12 13 10
5 3 3 4 7 8 9 9 8 5 5 4 8 9 8 11 6 3 2 2 3 4 6 8 6 2 7 5 2 3 4 4 3 4 4 3 4 5 6 7 7 5 4 3 2 1 2 2 2 2 3 3 4 4 4 3 3 3 1 3 3 3 3 4 2 1 4 5 3 4 4 4 4 3 2 2 6 8 7 7 14 16 17 17 16
4 5 6 6 5 8 8 9 8 6 6 6 5 4 8 8 6 4 4 3 2 5 4 2 3 3 2 4 2 1 2 2 3 2 2 5 8 8 10 12 12 12 5 3 3 3 3 3 3 4 1 0 3 2 3 2 1 1 1 2 1 0 2 3 4 3 5 6 4 2 2 2 2 4 4 4 6 8 7 11 15 17 16 16 16
9 6 4 5 6 6 9 8 5 8 8 8 7 9 9 9 6 4 5 4 4 7 4 4 3 4 3 3 1 2 4 7 5 4 5 5 8 10 13 11 11 11 8 5 2 1 2 6 6 6 6 2 3 2 4 3 1 1 2 0 1 1 2 2 3 4 6 7 4 2 3 3 2 1 4 5 7 7 7 10 14 15 16 16 16
5 6 11 12 7 5 6 6 5 3 3 4 9 10 8 7 7 4 4 3 8 5 5 4 4 3 1 3 3 3 3 4 3 3 3 3 4 5 7 7 6 9 13 14 15 16 11 5 7 7 7 6 5 5 6 5 4 3 2 2 2 3 3 2 2 5 5 7 5 4 2 2 2 1 3 6 7 7 6 8 13 14 14 15 15
1 5 5 4 6 10 9 7 6 1 4 7 5 7 7 6 5 2 3 1 8 6 6 5 4 4 2 1 3 3 2 4 3 4 3 4 6 9 10 8 7 7 9 9 9 8 6 8 9 8 7 5 6 7 7 5 5 4 2 1 0 2 3 1 1 4 6 8 9 6 4 5 2 2 2 5 7 6 5 7 10 12 14 14 15
2 1 1 3 4 3 5 7 3 5 4 7 6 6 7 6 2 3 3 7 8 6 4 6 6 4 5 4 3 3 5 6 5 6 3 3 7 9 8 9 7 7 8 9 10 9 8 7 7 7 7 8 8 8 9 7 6 6 3 1 1 3 3 2 5 6 6 6 8 6 3 4 4 4 5 6 6 6 5 5 6 11 12 13 14
2 1 3 4 3 2 2 1 6 6 4 2 5 5 4 3 1 3 4 7 6 7 7 7 7 8 8 7 5 5 7 5 3 3 5 7 8 9 9 8 7 7 6 5 7 10 12 12 12 11 11 12 13 15 16 18 13 10 7 7 8 4 3 3 5 6 7 6 7 8 4 3 4 5 6 5 5 5 4 4 3 5 9 11 13
6 6 3 3 3 4 4 4 6 7 5 2 4 6 5 3 2 2 7 6 8 7 7 7 7 7 10 14 9 6 6 4 3 1 2 8 8 9 10 9 7 6 6 5 4 4 7 9 8 8 8 10 12 15 17 17 17 13 9 8 8 5 6 6 5 6 6 7 8 9 4 6 4 4 3 4 5 3 4 4 5 4 7 9 12
7 5 4 3 4 3 3 3 4 8 6 2 2 4 6 4 1 5 7 7 8 7 7 7 7 6 7 10 14 10 6 5 8 8 10 10 8 8 8 8 8 8 5 4 5 5 4 5 5 5 7 11 9 9 11 16 17 14 9 9 8 8 7 7 7 4 5 7 8 9 5 6 6 6 5 1 3 3 4 5 4 4 3 3 5
Wind_Direction
157 188 207 165 164 59 9 41 359 357 347 48 17 313 277 219 155 189 109 271 247 155 155 144 97 308 354 61 142 349 108 186 253 244 196 182 217 186 195 201 209 213 216 221 229 235 232 231 229 211 207 167 144 165 193 276 295 299 299 311 310 216 176 162 154 164 174 190 183 196 211 209 207 208 204 208 205 203 203 202 199 200 201 201 198
167 173 175 159 89 69 53 29 33 305 8 335 192 200 287 339 50 9 73 23 347 349 70 76 172 218 344 54 14 3 11 21 303 270 205 231 189 201 196 203 208 213 217 222 226 230 230 229 224 195 194 177 160 181 193 238 282 280 285 294 304 259 191 165 158 156 170 190 184 189 202 217 215 212 207 206 209 207 205 202 199 203 203 200 196
180 196 120 108 103 88 43 69 117 279 174 285 192 168 309 16 28 187 141 168 19 343 45 40 40 11 37 71 353 338 341 23 320 277 243 204 197 224 189 210 212 213 217 223 228 228 228 227 227 175 168 169 178 200 209 217 253 268 282 295 297 281 251 198 160 139 162 166 185 185 192 195 216 215 211 208 209 208 205 204 198 201 203 199 198
70 177 114 133 118 117 100 85 230 64 288 248 334 207 154 259 156 201 205 115 87 50 84 76 18 39 49 48 126 247 275 238 232 278 281 253 347 298 23 232 220 224 220 222 229 232 230 228 223 181 168 177 183 197 217 213 228 258 269 281 284 280 263 221 149 132 143 153 180 188 180 192 203 225 213 208 209 205 206 204 200 197 197 202 202
8 325 168 146 101 101 176 132 232 136 245 259 45 18 46 20 338 352 29 34 56 43 66 99 67 58 104 117 16 273 256 201 229 147 29 296 12 336 306 266 249 217 222 224 229 230 230 226 217 208 174 179 186 191 198 205 211 222 230 245 256 273 274 248 141 107 141 162 172 200 191 181 197 206 204 204 209 205 205 201 206 200 198 201 203
150 241 277 113 103 101 124 168 224 176 266 309 60 27 14 339 38 22 358 81 43 55 97 99 156 210 112 63 69 275 253 266 252 208 192 208 193 166 256 276 263 220 212 223 226 232 233 229 211 211 197 183 189 195 193 202 204 209 215 224 238 253 269 279 132 119 138 146 165 190 209 183 189 199 197 195 201 207 203 201 202 197 198 201 202
247 193 286 120 125 201 132 189 307 297 207 41 55 74 38 314 251 105 319 140 121 183 128 83 238 113 125 146 174 199 287 262 237 116 175 251 155 207 208 240 259 270 252 240 207 225 225 228 213 203 203 195 197 201 196 199 194 204 212 211 225 236 247 235 177 131 139 145 151 177 219 194 180 194 195 198 196 203 196 200 202 200 196 201 200
242 337 186 220 98 168 75 206 216 254 80 277 126 116 207 247 314 269 151 320 197 171 132 152 181 146 172 180 168 190 181 234 191 188 193 206 185 215 257 222 285 293 274 222 159 191 215 223 222 205 202 196 194 202 197 196 194 199 214 213 215 227 224 73 289 154 180 141 132 159 214 182 176 187 194 204 198 190 200 195 205 205 198 200 199
221 182 305 228 105 95 166 218 225 191 182 95 57 78 226 243 201 336 306 214 301 311 161 119 175 126 188 212 195 171 196 244 192 96 83 153 321 301 310 314 302 278 246 224 234 82 207 222 225 218 203 197 199 204 196 193 194 199 212 207 211 223 182 97 227 186 195 127 114 137 231 149 149 177 192 198 202 191 196 195 201 208 204 200 199
206 194 231 35 112 155 203 221 242 338 332 104 119 310 275 265 287 261 334 323 294 316 337 50 305 126 239 238 216 139 233 244 103 111 103 49 341 311 292 287 290 293 274 237 345 274 259 240 217 225 207 190 198 200 197 191 193 197 206 202 220 215 193 176 200 205 189 96 108 142 213 170 151 169 192 194 203 193 194 195 194 202 204 199 197
195 200 184 222 164 163 184 215 166 255 239 149 175 198 236 235 237 166 204 237 289 300 333 344 327 342 278 292 264 187 245 301 98 77 91 132 224 250 244 252 291 287 265 183 171 227 254 205 191 212 176 182 192 194 195 190 192 200 198 186 204 204 163 131 154 208 173 109 122 148 224 176 170 163 184 192 203 201 194 194 194 199 201 198 196
190 190 215 226 160 184 182 214 136 118 287 200 155 187 219 230 256 357 328 256 223 343 47 2 328 294 235 272 277 242 58 53 63 75 201 211 201 247 251 249 253 278 278 264 239 233 210 207 199 154 96 173 177 183 194 193 185 194 197 189 186 179 151 146 177 198 153 112 122 143 196 205 168 178 179 200 192 204 193 193 190 195 196 196 195
190 190 203 230 151 103 225 245 135 154 228 209 181 216 185 236 141 198 262 257 354 40 130 42 324 278 222 300 262 298 117 82 86 300 249 224 205 245 319 310 290 284 281 288 278 285 24 202 165 121 90 94 150 175 192 190 175 190 190 187 186 176 159 167 185 160 89 97 115 148 187 193 176 183 180 197 190 197 199 195 190 191 194 193 194
193 194 198 208 171 180 234 222 107 227 207 200 202 210 211 237 203 215 200 291 205 211 225 182 222 258 340 279 188 124 69 118 152 226 259 277 262 247 278 265 254 257 253 241 241 254 264 33 186 82 74 103 134 155 189 199 203 203 197 199 192 180 167 190 135 97 109 175 149 160 179 176 160 163 184 190 192 193 196 192 188 189 187 194 192
194 196 198 205 188 164 211 163 196 192 206 211 205 233 223 252 137 228 354 216 248 242 198 210 251 13 317 303 270 186 303 357 316 239 241 122 299 294 241 227 236 266 280 282 43 7 339 5 8 106 276 112 127 170 196 202 198 196 199 197 195 179 182 159 112 134 175 182 167 170 174 162 161 166 176 186 193 182 176 181 184 183 177 194 194
199 193 206 182 184 165 205 71 244 197 173 205 209 219 190 225 233 211 151 280 193 244 262 182 195 114 358 237 300 328 290 318 267 267 126 51 348 326 327 309 302 249 262 16 5 345 321 337 45 68 91 344 152 164 173 230 208 195 195 201 196 182 195 122 134 166 173 176 168 173 171 159 159 167 172 187 181 165 163 169 177 174 179 184 190
199 196 215 151 144 192 179 169 235 251 210 191 232 248 217 174 225 211 248 231 329 328 294 340 228 134 161 327 352 24 332 329 325 58 35 352 350 324 318 312 295 320 38 98 358 1 336 340 70 106 91 351 293 256 169 201 180 192 195 203 189 189 168 122 160 177 171 166 173 172 163 161 164 169 172 178 176 165 157 162 171 174 176 181 183
196 201 204 134 179 189 195 183 219 225 248 224 202 158 219 220 314 149 237 199 158 237 298 344 21 150 201 148 161 177 220 309 343 224 353 344 307 300 277 276 290 289 100 148 202 281 258 330 20 8 18 27 307 293 214 189 181 187 178 199 182 187 148 169 190 177 174 165 169 166 162 161 166 166 172 172 175 169 169 166 169 170 174 177 178
199 195 196 150 183 198 210 209 223 222 219 235 241 239 230 85 207 232 215 47 336 301 278 289 96 331 327 143 199 204 235 204 72 259 329 318 290 287 273 265 280 334 315 262 169 294 29 46 7 357 8 351 325 284 267 215 196 198 209 192 186 179 170 186 205 179 171 167 163 161 159 158 162 163 167 166 172 175 176 172 172 172 173 176 178
209 177 204 155 182 196 203 221 234 223 205 202 277 320 348 184 196 319 39 195 329 294 343 313 317 305 16 334 323 280 306 276 178 148 174 249 307 248 252 272 288 279 247 252 189 211 141 129 162 341 26 325 289 278 264 215 174 197 204 207 195 187 191 198 196 182 173 167 163 159 161 160 158 159 160 158 164 174 176 173 174 175 174 175 176
229 176 209 167 173 192 196 209 227 218 239 235 216 220 221 86 111 231 208 189 210 292 183 253 297 256 174 263 256 207 272 302 337 140 127 208 260 210 285 327 291 264 230 289 261 188 164 90 54 54 271 213 241 255 247 237 178 200 203 201 200 195 197 193 186 186 175 171 167 164 164 160 157 157 155 151 156 164 171 170 171 169 168 171 175
214 196 180 200 176 187 201 211 216 232 237 246 233 328 155 178 221 255 356 336 243 260 274 296 296 326 324 292 24 333 262 315 328 26 126 246 248 304 327 326 326 285 293 178 332 41 137 147 153 155 220 204 200 227 238 246 216 201 198 187 195 195 184 184 185 186 180 174 170 170 168 168 163 160 159 155 157 162 164 167 171 171 171 174 176
199 201 181 200 193 189 208 208 218 201 204 238 252 251 240 187 241 115 179 230 253 247 271 265 242 185 270 236 190 240 259 137 200 196 227 210 311 335 151 251 253 308 8 14 335 5 327 25 134 166 189 203 186 172 187 183 197 172 172 177 190 183 182 183 184 187 182 180 175 174 176 175 172 170 165 166 168 168 168 171 173 173 174 175 177
199 191 192 195 193 197 215 224 202 210 193 213 231 230 279 45 176 172 206 212 229 203 265 297 299 269 259 346 239 254 287 352 342 167 201 247 181 225 264 235 255 273 322 8 335 10 318 355 84 192 180 210 212 162 163 118 130 140 157 173 177 177 181 184 184 186 184 184 184 182 181 181 180 179 178 175 176 176 178 179 182 181 181 182 181
193 193 193 203 182 185 204 217 222 181 223 238 78 107 268 246 246 216 213 190 169 220 228 248 268 264 270 282 305 304 331 33 280 31 66 4 27 9 292 282 241 247 340 30 347 303 306 38 319 319 298 97 54 351 101 115 141 150 157 171 173 176 178 184 185 185 184 186 187 190 189 188 187 185 187 185 188 187 185 186 189 189 191 191 193
195 204 188 198 198 186 192 199 211 202 193 197 198 256 253 263 268 259 265 251 194 198 214 257 269 291 285 283 292 299 301 318 344 171 142 119 132 234 259 312 309 359 278 297 280 311 310 350 260 305 336 70 108 305 73 107 119 164 162 162 177 174 178 182 184 187 186 188 189 191 194 195 196 193 191 193 193 198 198 198 200 201 201 201 201
217 203 211 180 197 185 178 193 199 209 197 178 206 199 215 216 239 290 294 314 285 257 258 263 265 265 273 257 255 238 264 210 254 47 159 177 193 204 161 290 304 350 318 259 17 303 301 311 331 342 45 303 36 37 19 254 171 162 158 157 169 177 178 184 183 187 188 189 193 194 195 199 200 201 202 200 199 200 201 202 209 212 214 216 215
215 203 204 239 195 189 168 190 191 191 197 199 211 224 200 200 215 243 250 254 270 244 228 284 288 282 272 285 294 315 295 38 252 183 359 33 15 265 102 130 352 331 333 351 358 264 283 2 336 355 3 24 22 49 33 11 319 174 197 161 145 173 183 185 185 187 189 190 195 197 199 201 203 204 207 208 210 209 206 205 207 209 213 218 222
192 204 202 208 240 211 198 196 187 195 193 188 199 215 228 209 227 218 247 257 253 267 261 249 243 264 279 297 248 233 226 262 5 76 121 180 212 95 106 124 130 150 340 356 342 333 311 17 34 317 14 6 47 10 13 46 15 0 295 292 142 166 183 187 189 189 189 191 193 200 203 206 207 208 208 210 214 216 217 217 214 214 214 215 217
202 197 204 192 202 220 229 227 199 190 205 205 196 207 206 213 220 208 228 258 317 317 278 281 278 271 252 212 204 267 300 291 299 48 341 49 4 88 209 109 129 154 160 152 283 330 326 90 98 281 335 356 21 24 316 83 160 256 291 309 297 187 173 188 191 190 192 192 193 198 204 206 211 214 215 213 214 215 217 220 220 220 221 223 224
207 222 185 197 178 192 215 229 240 218 183 206 196 192 202 202 224 229 207 201 236 264 279 268 273 270 268 325 330 323 348 9 4 36 37 61 327 44 60 144 191 184 172 150 272 265 271 339 127 186 229 310 342 324 351 335 309 307 308 310 292 164 165 188 192 193 194 195 195 199 203 206 209 214 217 218 216 216 218 219 220 221 222 224 226
209 230 213 200 190 195 201 216 223 216 223 216 215 199 195 201 219 233 158 147 224 271 272 282 286 304 339 290 272 273 150 84 218 192 237 174 244 228 224 174 201 34 29 11 228 256 25 12 359 11 316 53 307 297 15 321 95 186 4 19 4 68 145 177 202 203 200 199 200 202 204 207 210 213 216 216 216 216 218 218 219 221 224 225 226
205 204 219 225 202 188 198 198 216 214 199 208 196 206 176 177 205 220 212 185 188 221 235 266 283 292 310 318 321 320 333 341 15 310 304 285 266 181 196 233 78 96 143 250 298 314 42 28 2 347 332 316 232 252 179 226 16 15 54 349 345 338 356 53 170 205 215 208 207 208 209 212 215 216 217 217 217 217 218 220 220 220 221 222 224
210 204 197 216 234 206 200 200 202 215 201 169 214 203 189 187 209 219 200 173 195 240 251 248 245 267 263 255 243 249 198 210 238 292 336 340 345 358 352 347 77 140 147 143 165 129 291 354 339 302 301 317 346 2 17 359 28 356 0 136 239 229 213 176 38 16 202 206 201 211 246 255 250 234 224 221 220 220 220 220 222 221 220 221 222
205 214 201 211 215 228 224 217 201 204 219 200 191 206 206 198 205 221 226 182 200 212 219 225 240 247 258 281 271 286 294 316 358 348 360 345 341 330 344 23 6 104 117 130 125 148 212 291 263 285 264 22 346 349 356 9 355 343 315 314 289 254 123 55 254 222 153 192 217 221 204 204 232 259 259 242 229 225 224 225 225 223 221 221 221
205 205 222 207 205 201 218 231 219 204 189 200 203 209 198 201 204 208 215 192 208 225 232 244 241 238 248 245 260 218 226 252 330 59 249 290 326 33 23 6 351 8 106 102 129 138 178 214 274 317 332 326 223 340 337 343 348 313 284 278 256 329 30 337 302 331 138 193 223 232 227 209 211 224 242 259 255 241 233 231 228 226 223 222 222
218 205 204 223 207 189 210 220 228 222 216 198 194 203 210 213 216 217 170 185 209 224 230 225 238 233 225 223 345 31 55 290 316 281 357 350 45 51 22 19 350 342 32 90 145 164 163 203 251 230 256 226 161 161 133 344 345 298 263 268 291 95 66 107 311 52 135 174 201 218 224 231 233 230 236 245 252 253 249 248 244 234 228 226 225
221 222 205 209 220 199 202 215 220 216 209 218 215 224 223 218 212 204 209 196 197 219 239 242 242 251 176 179 151 220 259 250 274 17 29 360 69 105 87 37 269 296 23 95 135 143 139 279 293 319 6 353 4 12 27 19 19 332 310 292 26 73 132 164 207 253 43 85 274 193 217 248 235 241 254 256 253 258 258 260 264 265 257 246 239
220 221 215 207 212 216 199 215 222 223 212 214 223 218 225 246 246 224 216 202 213 225 236 241 277 185 221 188 196 185 204 295 3 344 341 62 56 98 156 229 7 29 11 9 353 100 131 89 148 93 321 48 28 328 2 75 77 229 306 309 289 119 102 285 312 305 307 346 179 212 262 292 29 35 232 234 236 241 241 229 245 253 262 267 265
226 227 223 214 199 214 220 216 221 227 214 213 212 218 227 237 248 251 245 239 220 231 241 240 289 220 199 194 189 101 358 64 30 356 7 355 127 6 89 31 28 359 267 266 331 18 51 111 311 116 112 109 336 261 259 102 58 88 71 335 319 320 327 265 340 4 358 340 343 4 187 66 142 199 228 224 227 221 223 240 236 234 236 240 241
220 229 227 233 222 198 208 223 218 211 233 228 229 225 229 228 234 244 233 239 239 245 239 227 176 209 210 227 83 33 31 349 325 19 9 356 336 320 25 154 157 330 302 310 354 335 341 306 304 215 147 16 309 340 331 8 9 17 29 305 291 302 301 319 65 71 25 1 12 18 31 111 195 214 5 111 179 220 221 220 252 240 235 237 238
227 218 229 222 245 226 200 211 221 215 218 228 225 229 216 216 221 236 245 216 186 344 14 343 12 1 345 18 334 24 23 344 1 349 322 307 299 295 325 339 343 325 317 327 268 256 283 299 320 342 3 1 27 7 327 51 28 39 130 332 307 304 272 294 53 39 22 6 2 25 25 20 103 63 38 51 60 34 28 31 29 48 46 46 39
217 219 225 241 241 244 222 206 217 217 218 225 228 227 229 214 218 224 241 122 83 59 36 34 69 227 243 263 287 49 17 2 2 4 332 328 331 342 340 334 337 328 312 320 302 325 320 317 322 4 25 4 359 1 350 4 47 77 102 284 292 329 350 5 18 193 37 359 348 46 23 359 31 52 7 29 54 44 37 49 62 62 60 56 56
223 217 226 219 232 249 248 231 200 194 205 216 230 209 185 178 189 195 200 150 148 99 110 129 168 233 300 250 143 146 139 55 31 16 348 39 47 26 34 51 43 48 44 312 319 324 331 323 16 22 355 38 295 45 287 313 327 355 249 205 158 252 44 24 29 16 338 339 325 59 105 304 353 34 8 33 61 69 59 72 69 65 60 58 55
348 315 259 224 228 244 249 254 224 198 201 165 183 187 188 168 167 197 223 221 107 123 156 206 144 113 238 243 130 86 56 33 33 27 45 40 45 52 53 35 42 58 56 23 347 63 72 73 89 62 38 33 78 37 348 350 273 285 260 17 103 103 120 85 51 38 0 333 344 19 79 340 12 41 69 53 74 75 68 61 70 71 69 66 62
39 4 343 320 296 261 247 266 265 249 105 139 161 163 169 161 163 182 225 232 100 125 116 82 102 178 276 339 23 34 44 34 31 29 60 76 69 42 56 56 41 40 50 61 60 52 56 75 78 68 43 39 26 2 354 333 357 344 339 357 18 20 55 67 68 91 37 11 17 316 118 93 338 297 94 85 80 78 68 71 80 81 81 77 72
119 230 203 251 313 308 290 263 262 89 78 68 98 122 118 116 118 207 204 148 95 101 98 106 88 76 73 131 89 71 36 66 36 357 26 50 64 73 80 69 53 43 53 54 63 73 64 65 73 71 67 51 39 28 15 4 345 337 291 270 271 109 81 58 59 93 55 22 12 353 42 67 148 175 109 114 94 87 87 56 69 79 77 76 72
296 348 348 291 268 293 334 323 304 90 63 34 78 87 89 102 140 162 173 97 115 108 113 97 85 52 39 44 99 108 84 64 26 0 27 76 91 104 98 90 79 68 62 66 75 83 93 89 91 87 73 69 62 46 35 20 9 349 328 161 164 114 94 85 76 56 46 30 25 15 355 52 9 21 74 98 103 98 93 86 59 78 81 79 76
204 219 218 225 220 228 255 197 90 103 114 36 75 81 82 97 129 192 111 106 108 112 98 83 64 48 29 17 15 79 91 86 30 306 289 105 112 114 108 103 101 97 99 90 84 93 96 100 109 116 110 87 67 54 42 33 28 17 23 38 22 24 62 91 84 65 44 15 15 8 311 37 29 27 74 80 89 108 120 125 114 83 89 90 87
194 204 189 226 195 211 199 157 149 141 143 141 138 113 105 90 325 138 103 109 110 97 95 88 82 65 46 42 42 41 68 59 352 343 292 121 116 115 115 119 116 117 124 132 125 108 127 130 121 113 106 92 72 58 50 42 36 32 35 38 7 11 44 35 84 90 59 29 12 356 348 21 355 33 99 120 102 88 123 134 132 120 106 92 89
193 207 220 215 212 186 181 164 136 120 117 120 97 102 105 114 155 103 109 121 124 115 108 92 83 85 65 52 46 47 52 48 51 60 94 106 102 106 110 98 88 80 67 68 77 93 88 80 78 74 55 54 52 51 54 51 44 40 37 36 25 26 35 42 36 35 43 22 357 353 6 21 359 12 355 58 84 87 63 67 72 79 52 58 103